QPF
0.00 0.00 0.00 0.00 0.00 0.00 0.00 0.00 0.00 0.00 0.00 0.00 0.00 0.00 0.00 0.00 0.00 0.00 0.01 0.00 0.04 0.02 0.00 0.00 0.00 0.00 0.00 0.00 0.01 0.02 0.01 0.00 0.00 0.00 0.00 0.00 0.01 0.01 0.01 0.00 0.00 0.01 0.01 0.00 0.01 0.01 0.00 0.00 0.00 0.00 0.01 0.01 0.02 0.02
0.00 0.00 0.00 0.00 0.00 0.00 0.00 0.00 0.00 0.00 0.00 0.00 0.00 0.00 0.00 0.00 0.00 0.00 0.00 0.00 0.01 0.02 0.00 0.00 0.00 0.00 0.00 0.00 0.01 0.03 0.01 0.00 0.01 0.01 0.00 0.00 0.00 0.00 0.00 0.00 0.00 0.00 0.00 0.01 0.01 0.00 0.00 0.00 0.00 0.00 0.01 0.04 0.02 0.02
0.00 0.00 0.00 0.00 0.00 0.00 0.00 0.00 0.00 0.00 0.00 0.00 0.00 0.00 0.00 0.01 0.01 0.01 0.00 0.00 0.01 0.01 0.01 0.00 0.00 0.00 0.00 0.00 0.00 0.04 0.01 0.00 0.01 0.01 0.04 0.00 0.00 0.00 0.00 0.00 0.00 0.00 0.00 0.00 0.00 0.00 0.00 0.01 0.00 0.01 0.02 0.03 0.02 0.02
0.00 0.00 0.00 0.00 0.00 0.00 0.00 0.00 0.00 0.00 0.00 0.00 0.00 0.00 0.00 0.00 0.00 0.01 0.01 0.01 0.02 0.02 0.00 0.00 0.00 0.00 0.00 0.00 0.00 0.00 0.00 0.02 0.03 0.05 0.03 0.00 0.00 0.00 0.00 0.00 0.00 0.00 0.00 0.00 0.00 0.00 0.01 0.02 0.02 0.02 0.01 0.01 0.01 0.01
0.00 0.00 0.00 0.00 0.00 0.00 0.00 0.00 0.00 0.00 0.00 0.00 0.00 0.00 0.00 0.00 0.01 0.01 0.01 0.01 0.01 0.02 0.00 0.00 0.00 0.00 0.00 0.00 0.00 0.00 0.00 0.01 0.06 0.04 0.01 0.00 0.00 0.01 0.00 0.00 0.00 0.00 0.00 0.00 0.00 0.02 0.06 0.01 0.02 0.01 0.01 0.02 0.02 0.02
0.00 0.00 0.00 0.00 0.00 0.00 0.00 0.00 0.00 0.00 0.00 0.00 0.00 0.00 0.00 0.01 0.01 0.01 0.00 0.00 0.00 0.00 0.00 0.00 0.00 0.00 0.00 0.00 0.00 0.00 0.00 0.02 0.05 0.02 0.00 0.00 0.00 0.02 0.00 0.00 0.00 0.00 0.00 0.03 0.04 0.03 0.02 0.00 0.00 0.00 0.04 0.02 0.01 0.00
0.00 0.00 0.00 0.00 0.00 0.00 0.00 0.00 0.00 0.00 0.00 0.00 0.00 0.00 0.00 0.00 0.00 0.00 0.00 0.00 0.00 0.00 0.00 0.00 0.00 0.00 0.00 0.00 0.00 0.01 0.01 0.03 0.02 0.01 0.00 0.00 0.00 0.02 0.01 0.00 0.00 0.00 0.00 0.01 0.01 0.01 0.01 0.01 0.01 0.00 0.00 0.00 0.00 0.00
0.00 0.00 0.00 0.00 0.00 0.00 0.00 0.00 0.00 0.00 0.00 0.00 0.00 0.00 0.00 0.00 0.00 0.00 0.00 0.00 0.00 0.00 0.00 0.00 0.00 0.00 0.00 0.00 0.00 0.00 0.00 0.01 0.00 0.00 0.00 0.00 0.01 0.02 0.01 0.00 0.00 0.00 0.00 0.00 0.00 0.00 0.02 0.00 0.00 0.00 0.00 0.00 0.00 0.00
0.00 0.00 0.00 0.00 0.00 0.00 0.00 0.00 0.00 0.00 0.00 0.00 0.00 0.00 0.00 0.00 0.00 0.00 0.00 0.00 0.00 0.00 0.00 0.00 0.00 0.00 0.00 0.00 0.00 0.00 0.00 0.00 0.01 0.01 0.00 0.02 0.01 0.01 0.00 0.00 0.00 0.00 0.00 0.01 0.00 0.00 0.00 0.00 0.00 0.00 0.00 0.00 0.00 0.00
0.00 0.00 0.00 0.00 0.00 0.00 0.00 0.00 0.00 0.00 0.00 0.00 0.00 0.00 0.00 0.00 0.00 0.01 0.00 0.00 0.00 0.00 0.00 0.00 0.00 0.00 0.00 0.00 0.00 0.00 0.00 0.00 0.01 0.00 0.02 0.02 0.00 0.00 0.00 0.00 0.00 0.00 0.00 0.00 0.00 0.00 0.00 0.00 0.00 0.00 0.00 0.00 0.00 0.00
0.00 0.00 0.00 0.00 0.00 0.00 0.00 0.00 0.00 0.00 0.00 0.00 0.00 0.00 0.00 0.00 0.01 0.01 0.00 0.00 0.00 0.00 0.00 0.00 0.00 0.01 0.00 0.00 0.00 0.00 0.01 0.00 0.01 0.00 0.03 0.01 0.00 0.00 0.00 0.00 0.00 0.00 0.00 0.00 0.00 0.00 0.00 0.00 0.00 0.00 0.00 0.00 0.00 0.00
0.00 0.00 0.00 0.00 0.00 0.00 0.00 0.00 0.00 0.00 0.00 0.00 0.00 0.00 0.00 0.00 0.01 0.00 0.00 0.01 0.00 0.01 0.00 0.01 0.00 0.00 0.00 0.01 0.02 0.01 0.01 0.02 0.02 0.00 0.00 0.00 0.00 0.00 0.00 0.00 0.00 0.00 0.00 0.00 0.00 0.00 0.00 0.00 0.00 0.00 0.00 0.00 0.00 0.00
0.00 0.00 0.00 0.00 0.00 0.00 0.00 0.00 0.00 0.00 0.00 0.00 0.00 0.00 0.00 0.00 0.00 0.00 0.00 0.01 0.02 0.01 0.00 0.00 0.00 0.00 0.00 0.00 0.00 0.00 0.01 0.02 0.00 0.00 0.01 0.01 0.00 0.00 0.00 0.00 0.00 0.00 0.00 0.00 0.00 0.00 0.00 0.00 0.00 0.00 0.00 0.00 0.00 0.00
0.00 0.00 0.00 0.00 0.00 0.00 0.00 0.00 0.00 0.00 0.00 0.00 0.00 0.00 0.00 0.00 0.00 0.00 0.00 0.01 0.00 0.00 0.00 0.00 0.00 0.00 0.00 0.00 0.00 0.00 0.01 0.00 0.00 0.00 0.00 0.01 0.00 0.00 0.00 0.00 0.00 0.00 0.00 0.00 0.00 0.00 0.00 0.00 0.00 0.00 0.00 0.00 0.00 0.00
0.00 0.00 0.00 0.00 0.00 0.00 0.00 0.00 0.00 0.00 0.00 0.00 0.00 0.00 0.00 0.00 0.00 0.00 0.00 0.00 0.00 0.00 0.00 0.00 0.00 0.00 0.00 0.00 0.00 0.00 0.00 0.00 0.00 0.00 0.02 0.00 0.00 0.00 0.00 0.00 0.00 0.00 0.00 0.00 0.00 0.00 0.00 0.00 0.00 0.00 0.00 0.00 0.00 0.00
0.00 0.00 0.00 0.00 0.00 0.00 0.00 0.00 0.00 0.00 0.00 0.00 0.00 0.00 0.00 0.00 0.00 0.00 0.00 0.00 0.00 0.00 0.00 0.00 0.00 0.00 0.00 0.00 0.00 0.00 0.00 0.00 0.00 0.01 0.01 0.00 0.00 0.00 0.00 0.00 0.00 0.00 0.00 0.00 0.00 0.00 0.00 0.00 0.00 0.00 0.00 0.00 0.00 0.00
0.00 0.00 0.00 0.00 0.00 0.00 0.00 0.00 0.00 0.00 0.00 0.00 0.00 0.00 0.00 0.00 0.00 0.00 0.00 0.00 0.00 0.00 0.00 0.00 0.00 0.00 0.00 0.00 0.00 0.00 0.00 0.00 0.00 0.00 0.00 0.00 0.00 0.00 0.00 0.00 0.00 0.00 0.00 0.00 0.00 0.00 0.00 0.00 0.00 0.00 0.00 0.00 0.00 0.00
0.00 0.00 0.00 0.00 0.00 0.01 0.00 0.00 0.00 0.00 0.00 0.00 0.00 0.00 0.00 0.00 0.00 0.00 0.00 0.00 0.00 0.00 0.00 0.00 0.00 0.00 0.00 0.00 0.00 0.00 0.00 0.00 0.00 0.00 0.00 0.00 0.00 0.00 0.00 0.00 0.00 0.00 0.00 0.00 0.00 0.00 0.00 0.00 0.00 0.00 0.00 0.00 0.00 0.00
0.00 0.00 0.00 0.00 0.00 0.00 0.00 0.00 0.00 0.00 0.00 0.00 0.00 0.00 0.00 0.00 0.00 0.00 0.00 0.00 0.00 0.01 0.02 0.01 0.01 0.00 0.00 0.00 0.01 0.01 0.00 0.00 0.00 0.00 0.00 0.00 0.00 0.00 0.00 0.00 0.00 0.00 0.00 0.00 0.00 0.00 0.00 0.00 0.00 0.00 0.00 0.00 0.00 0.00
0.00 0.00 0.00 0.00 0.01 0.01 0.00 0.01 0.00 0.00 0.00 0.00 0.00 0.00 0.00 0.00 0.00 0.00 0.00 0.00 0.00 0.01 0.02 0.01 0.00 0.00 0.00 0.00 0.00 0.00 0.00 0.00 0.00 0.00 0.00 0.00 0.00 0.00 0.00 0.00 0.00 0.00 0.00 0.00 0.00 0.00 0.00 0.00 0.00 0.00 0.00 0.00 0.00 0.00
0.01 0.01 0.03 0.03 0.03 0.02 0.00 0.00 0.00 0.00 0.00 0.00 0.00 0.00 0.00 0.00 0.00 0.00 0.00 0.01 0.02 0.02 0.00 0.00 0.00 0.00 0.00 0.00 0.00 0.00 0.00 0.00 0.00 0.01 0.00 0.00 0.00 0.00 0.00 0.00 0.00 0.00 0.00 0.00 0.00 0.00 0.00 0.00 0.00 0.00 0.00 0.00 0.00 0.00
0.01 0.01 0.02 0.01 0.01 0.01 0.01 0.01 0.01 0.00 0.00 0.00 0.00 0.00 0.00 0.00 0.00 0.00 0.00 0.01 0.00 0.00 0.00 0.00 0.00 0.00 0.00 0.00 0.00 0.00 0.00 0.00 0.00 0.00 0.00 0.00 0.00 0.00 0.00 0.00 0.00 0.00 0.00 0.00 0.01 0.01 0.00 0.00 0.00 0.00 0.00 0.00 0.00 0.00
0.00 0.00 0.00 0.00 0.01 0.02 0.02 0.01 0.01 0.01 0.00 0.00 0.01 0.01 0.00 0.00 0.00 0.00 0.00 0.00 0.00 0.00 0.00 0.00 0.00 0.00 0.00 0.00 0.00 0.00 0.00 0.00 0.00 0.00 0.00 0.00 0.00 0.00 0.00 0.00 0.00 0.00 0.00 0.00 0.00 0.00 0.00 0.00 0.00 0.00 0.00 0.00 0.00 0.00
0.00 0.00 0.00 0.01 0.01 0.02 0.00 0.01 0.01 0.01 0.01 0.00 0.00 0.00 0.00 0.00 0.01 0.00 0.00 0.00 0.00 0.00 0.00 0.00 0.00 0.00 0.00 0.00 0.00 0.00 0.00 0.00 0.00 0.00 0.00 0.00 0.00 0.00 0.00 0.00 0.00 0.00 0.00 0.00 0.00 0.00 0.00 0.00 0.00 0.00 0.00 0.00 0.00 0.00
0.00 0.00 0.01 0.01 0.01 0.00 0.00 0.00 0.00 0.00 0.00 0.00 0.00 0.00 0.00 0.00 0.00 0.00 0.00 0.00 0.00 0.00 0.00 0.00 0.00 0.00 0.00 0.00 0.00 0.00 0.00 0.00 0.00 0.00 0.00 0.00 0.00 0.00 0.00 0.00 0.00 0.00 0.00 0.00 0.00 0.00 0.00 0.00 0.00 0.00 0.00 0.00 0.00 0.00
0.01 0.01 0.01 0.00 0.00 0.00 0.00 0.00 0.00 0.00 0.00 0.00 0.00 0.00 0.00 0.00 0.00 0.00 0.00 0.00 0.00 0.00 0.00 0.00 0.02 0.02 0.01 0.01 0.00 0.00 0.00 0.00 0.00 0.00 0.00 0.00 0.00 0.00 0.00 0.00 0.00 0.00 0.00 0.00 0.00 0.00 0.00 0.00 0.00 0.00 0.00 0.00 0.00 0.00
0.01 0.01 0.00 0.00 0.00 0.00 0.00 0.00 0.00 0.00 0.00 0.00 0.00 0.00 0.00 0.00 0.00 0.00 0.00 0.00 0.00 0.00 0.00 0.00 0.00 0.01 0.00 0.00 0.00 0.00 0.00 0.00 0.00 0.00 0.00 0.00 0.00 0.00 0.00 0.00 0.01 0.00 0.00 0.00 0.00 0.00 0.00 0.00 0.00 0.00 0.00 0.00 0.00 0.00
0.00 0.00 0.00 0.00 0.00 0.00 0.00 0.00 0.00 0.00 0.00 0.00 0.00 0.00 0.00 0.00 0.00 0.00 0.00 0.00 0.00 0.00 0.00 0.00 0.00 0.00 0.00 0.00 0.00 0.00 0.00 0.00 0.00 0.00 0.00 0.00 0.00 0.00 0.00 0.00 0.00 0.00 0.00 0.00 0.00 0.00 0.00 0.00 0.00 0.00 0.00 0.00 0.00 0.00
0.00 0.00 0.01 0.01 0.01 0.00 0.00 0.00 0.00 0.00 0.00 0.00 0.00 0.00 0.00 0.00 0.00 0.00 0.00 0.00 0.00 0.00 0.00 0.00 0.00 0.00 0.00 0.00 0.00 0.00 0.00 0.00 0.00 0.00 0.00 0.00 0.00 0.00 0.00 0.00 0.00 0.00 0.00 0.00 0.00 0.00 0.00 0.00 0.00 0.00 0.00 0.00 0.00 0.00
0.00 0.01 0.01 0.00 0.00 0.00 0.00 0.00 0.00 0.00 0.00 0.00 0.00 0.00 0.00 0.00 0.00 0.00 0.00 0.00 0.00 0.00 0.00 0.00 0.00 0.00 0.00 0.00 0.00 0.00 0.00 0.00 0.00 0.00 0.00 0.01 0.01 0.00 0.00 0.00 0.00 0.00 0.00 0.00 0.00 0.00 0.00 0.00 0.00 0.00 0.00 0.00 0.00 0.00
0.00 0.00 0.00 0.01 0.00 0.00 0.00 0.00 0.00 0.00 0.00 0.00 0.00 0.00 0.00 0.00 0.00 0.00 0.00 0.00 0.00 0.00 0.00 0.00 0.00 0.00 0.00 0.00 0.00 0.00 0.00 0.00 0.00 0.00 0.00 0.00 0.00 0.00 0.00 0.00 0.00 0.00 0.00 0.00 0.00 0.00 0.00 0.00 0.00 0.00 0.00 0.00 0.00 0.00
0.00 0.00 0.00 0.00 0.00 0.00 0.00 0.00 0.00 0.00 0.00 0.00 0.00 0.00 0.00 0.00 0.00 0.00 0.00 0.00 0.00 0.00 0.00 0.00 0.00 0.00 0.00 0.00 0.00 0.00 0.00 0.00 0.00 0.00 0.00 0.00 0.00 0.00 0.00 0.00 0.00 0.00 0.00 0.00 0.00 0.00 0.00 0.00 0.00 0.00 0.00 0.00 0.00 0.00
0.01 0.01 0.01 0.01 0.01 0.00 0.00 0.00 0.00 0.00 0.00 0.00 0.00 0.00 0.00 0.00 0.00 0.00 0.00 0.00 0.00 0.00 0.00 0.00 0.00 0.00 0.00 0.00 0.00 0.00 0.00 0.00 0.00 0.00 0.00 0.00 0.00 0.00 0.00 0.00 0.00 0.00 0.00 0.00 0.00 0.00 0.00 0.00 0.00 0.00 0.00 0.00 0.00 0.00
MSLP
1017.91 1018.14 1018.66 1019.03 1019.51 1019.95 1020.32 1020.90 1021.24 1021.53 1021.77 1022.05 1022.34 1022.53 1022.86 1023.07 1023.37 1023.27 1022.24 1022.34 1022.28 1022.24 1021.51 1021.27 1020.94 1020.66 1020.59 1020.99 1021.11 1021.58 1022.33 1022.64 1023.47 1023.99 1024.43 1024.30 1023.58 1022.38 1021.24 1020.60 1020.44 1020.60 1020.79 1019.88 1019.07 1017.07 1013.86 1012.17 1012.11 1012.81 1012.24 1011.56 1011.62 1011.44
1017.63 1017.87 1018.24 1018.43 1019.06 1019.63 1019.99 1020.30 1020.51 1020.84 1021.37 1021.72 1022.05 1022.28 1022.46 1022.84 1023.23 1023.49 1022.87 1022.32 1022.55 1022.95 1021.78 1021.37 1020.65 1020.29 1020.44 1020.34 1020.54 1021.14 1021.49 1021.51 1022.29 1022.92 1023.63 1023.87 1023.80 1023.18 1022.39 1020.50 1020.64 1019.46 1019.06 1017.71 1017.14 1014.10 1012.53 1011.63 1011.72 1011.80 1011.67 1011.15 1011.57 1012.02
1018.16 1018.15 1018.38 1018.74 1018.99 1019.08 1019.23 1019.62 1019.97 1020.22 1020.63 1021.04 1021.46 1021.93 1022.02 1022.58 1023.04 1023.41 1022.89 1022.69 1023.06 1023.35 1022.59 1022.04 1020.64 1019.95 1020.22 1020.24 1020.56 1021.01 1021.42 1021.38 1021.46 1021.69 1022.64 1023.21 1023.35 1022.78 1021.98 1020.32 1019.80 1019.10 1018.79 1017.37 1016.03 1014.24 1012.88 1012.33 1012.24 1011.91 1011.78 1011.97 1011.21 1011.30
1018.18 1018.23 1018.13 1018.35 1018.49 1018.58 1018.93 1018.99 1019.33 1019.81 1020.04 1020.30 1020.74 1021.21 1021.61 1021.91 1022.45 1023.14 1022.96 1022.50 1022.62 1023.15 1022.88 1021.18 1020.56 1019.93 1019.82 1019.79 1020.10 1020.35 1020.49 1020.91 1021.41 1021.86 1022.75 1022.97 1022.62 1022.02 1020.76 1019.75 1019.04 1018.63 1017.99 1016.68 1014.58 1013.75 1013.09 1012.70 1012.16 1011.59 1011.60 1011.49 1010.81 1010.78
1018.33 1018.46 1018.25 1018.10 1018.05 1017.85 1017.97 1018.32 1018.73 1018.99 1019.24 1019.73 1020.11 1020.43 1020.99 1021.37 1021.68 1022.44 1022.52 1022.24 1022.02 1022.56 1022.15 1021.87 1020.61 1019.67 1019.36 1019.14 1019.59 1019.83 1020.17 1020.35 1020.96 1021.76 1022.14 1021.79 1021.36 1021.42 1019.90 1018.80 1017.28 1017.31 1016.16 1015.70 1014.03 1013.99 1013.16 1011.49 1011.12 1011.14 1010.88 1011.02 1010.74 1010.48
1018.13 1018.26 1018.18 1018.25 1018.24 1017.99 1017.85 1017.99 1018.19 1018.42 1018.74 1019.16 1019.53 1019.97 1020.37 1020.83 1021.54 1022.28 1022.70 1022.09 1022.09 1021.79 1022.37 1021.67 1020.61 1019.72 1019.09 1018.99 1018.74 1019.14 1019.44 1019.67 1020.41 1020.71 1020.64 1020.41 1020.22 1020.47 1019.02 1016.71 1015.72 1015.27 1015.01 1014.62 1013.56 1013.11 1012.27 1011.22 1010.81 1010.73 1010.74 1010.70 1010.48 1010.52
1018.02 1018.06 1018.41 1018.55 1018.55 1018.32 1018.22 1018.12 1017.95 1018.06 1018.23 1018.62 1018.95 1019.41 1019.81 1020.40 1020.83 1021.65 1021.92 1021.67 1021.48 1021.86 1022.24 1022.17 1021.25 1020.43 1019.95 1019.25 1018.66 1018.65 1018.97 1019.27 1019.93 1020.22 1019.52 1019.63 1019.74 1019.65 1017.99 1015.81 1012.88 1014.51 1013.82 1013.02 1012.37 1011.71 1010.98 1010.96 1010.54 1010.57 1010.64 1010.64 1010.66 1010.58
1018.22 1018.19 1018.43 1018.65 1018.81 1018.93 1018.90 1018.74 1018.75 1018.76 1018.79 1018.98 1019.25 1019.52 1019.97 1020.53 1021.20 1021.63 1021.91 1021.51 1021.38 1022.13 1022.36 1022.39 1021.53 1021.20 1020.39 1019.91 1019.76 1019.52 1019.48 1019.84 1019.61 1019.34 1019.01 1018.88 1018.29 1017.92 1015.85 1013.91 1013.23 1012.50 1011.87 1011.23 1010.92 1010.97 1010.92 1010.54 1010.62 1010.74 1010.73 1010.77 1010.72 1010.91
1018.37 1018.28 1018.43 1018.85 1018.97 1019.13 1019.25 1019.37 1019.33 1019.27 1019.26 1019.40 1019.58 1020.03 1020.49 1020.96 1021.52 1021.85 1021.92 1021.88 1022.08 1022.65 1022.51 1022.40 1021.66 1021.07 1020.58 1020.25 1020.73 1020.72 1020.55 1020.20 1019.70 1018.68 1018.04 1017.73 1016.35 1015.09 1013.41 1012.82 1012.12 1011.68 1011.30 1011.38 1011.44 1011.45 1011.31 1011.24 1011.11 1010.92 1010.97 1011.10 1011.80 1012.39
1018.21 1018.28 1018.27 1018.79 1019.03 1019.23 1019.47 1019.53 1019.71 1019.71 1019.67 1019.73 1019.75 1020.41 1021.34 1021.51 1021.71 1021.96 1022.02 1022.24 1022.47 1022.53 1022.51 1022.11 1021.48 1020.87 1020.23 1020.80 1021.01 1021.31 1020.78 1020.37 1019.21 1017.53 1016.79 1015.90 1014.10 1013.47 1012.69 1012.10 1011.58 1011.64 1011.83 1011.89 1011.93 1011.75 1011.88 1011.85 1011.73 1011.54 1012.06 1012.73 1013.54 1014.14
1017.89 1018.26 1018.33 1018.60 1018.99 1019.37 1019.56 1019.67 1019.94 1020.13 1020.05 1019.65 1020.13 1020.81 1021.50 1021.74 1021.46 1021.65 1021.95 1022.19 1022.15 1022.06 1022.02 1021.34 1020.71 1020.40 1020.74 1020.76 1020.95 1021.09 1020.34 1019.82 1018.70 1016.39 1015.80 1014.84 1013.51 1012.64 1012.14 1012.19 1012.42 1012.57 1012.74 1012.71 1012.67 1012.68 1012.68 1012.67 1012.47 1012.52 1012.89 1013.61 1014.42 1014.75
1017.84 1018.21 1018.54 1018.78 1019.15 1019.43 1019.78 1019.92 1020.07 1019.94 1019.82 1020.09 1020.25 1020.91 1021.39 1021.51 1021.52 1021.82 1021.61 1021.82 1021.38 1020.60 1020.27 1020.47 1020.56 1020.42 1020.67 1020.80 1020.49 1020.42 1019.96 1019.30 1017.98 1017.23 1016.40 1014.31 1013.19 1012.99 1012.84 1012.72 1013.08 1013.26 1013.14 1012.96 1013.18 1013.20 1013.21 1013.11 1013.17 1013.34 1013.81 1014.35 1014.70 1014.97
1018.16 1018.47 1018.77 1019.11 1019.39 1019.60 1019.94 1020.16 1020.20 1020.27 1020.24 1020.13 1020.62 1021.07 1020.99 1021.57 1021.56 1021.16 1020.57 1020.62 1020.49 1020.52 1021.09 1021.17 1020.97 1021.19 1021.53 1021.57 1021.01 1020.49 1019.27 1018.14 1018.02 1016.71 1014.97 1013.69 1013.19 1013.10 1013.28 1013.28 1013.34 1013.41 1013.64 1014.10 1013.80 1013.84 1013.86 1013.70 1013.69 1014.12 1014.46 1014.73 1014.95 1015.12
1018.52 1018.65 1018.97 1019.39 1019.50 1019.70 1020.06 1020.40 1020.42 1020.27 1020.01 1020.73 1021.27 1021.56 1021.46 1021.11 1020.47 1019.65 1019.88 1020.49 1021.31 1021.49 1021.51 1021.38 1021.30 1021.25 1021.40 1021.21 1020.71 1020.20 1018.41 1017.99 1016.66 1015.36 1013.56 1012.51 1013.12 1013.52 1013.76 1013.94 1014.11 1013.96 1014.40 1014.26 1014.07 1013.97 1013.94 1014.02 1014.14 1014.39 1014.83 1015.05 1015.04 1015.17
1018.78 1019.02 1019.43 1019.69 1019.75 1019.92 1020.44 1020.84 1020.86 1020.26 1020.86 1021.39 1021.65 1021.16 1020.90 1020.35 1020.31 1020.55 1020.86 1020.88 1021.39 1021.64 1021.55 1021.43 1021.44 1021.46 1021.19 1021.05 1020.32 1019.40 1018.14 1016.62 1015.15 1013.74 1012.94 1012.82 1013.56 1013.95 1014.03 1014.22 1014.21 1014.29 1014.03 1013.88 1013.81 1013.62 1013.68 1013.94 1014.24 1014.48 1014.69 1014.93 1014.94 1014.98
1019.13 1019.60 1019.51 1019.81 1020.10 1020.45 1020.90 1021.06 1020.71 1020.67 1021.47 1021.55 1021.46 1020.88 1020.69 1020.77 1020.78 1021.25 1021.08 1021.10 1021.25 1021.49 1021.70 1021.60 1021.49 1021.32 1020.61 1019.76 1018.92 1017.80 1016.42 1014.72 1013.76 1013.47 1013.25 1013.17 1013.34 1013.66 1013.90 1014.09 1014.19 1014.03 1013.83 1013.62 1013.34 1013.30 1013.42 1013.77 1013.97 1014.05 1014.31 1014.59 1014.62 1014.72
1018.95 1018.66 1019.49 1020.03 1020.40 1020.76 1020.85 1020.65 1020.71 1021.42 1021.45 1021.43 1020.90 1020.85 1020.72 1020.98 1020.96 1021.02 1021.13 1021.01 1020.99 1021.64 1021.33 1021.16 1020.75 1019.82 1018.66 1017.85 1017.05 1015.94 1014.80 1014.34 1014.01 1013.73 1013.59 1013.63 1013.57 1013.50 1013.58 1013.78 1013.80 1013.51 1013.26 1013.05 1012.85 1012.83 1013.08 1013.46 1013.63 1013.73 1013.85 1013.86 1014.12 1014.40
1018.34 1018.82 1019.49 1020.00 1020.30 1020.75 1020.82 1020.78 1021.16 1021.33 1021.17 1020.71 1020.67 1020.54 1020.98 1021.04 1021.00 1021.06 1021.18 1021.00 1021.46 1021.04 1020.47 1020.22 1019.57 1018.74 1017.65 1016.26 1015.50 1015.07 1014.59 1014.27 1014.18 1014.02 1013.65 1013.47 1013.24 1013.21 1013.30 1013.29 1013.15 1012.98 1012.74 1012.62 1012.76 1012.74 1012.90 1013.15 1013.20 1013.07 1013.13 1013.25 1013.79 1014.12
1018.03 1018.71 1019.50 1019.89 1020.12 1020.35 1020.81 1021.40 1021.13 1020.76 1020.38 1020.30 1020.47 1020.66 1020.48 1020.43 1020.50 1020.54 1020.56 1020.86 1020.83 1020.51 1020.23 1019.77 1018.93 1017.29 1016.27 1015.83 1015.35 1014.97 1014.80 1014.58 1014.08 1013.66 1013.19 1013.03 1013.06 1012.94 1012.71 1012.51 1012.42 1012.33 1012.15 1012.46 1012.48 1012.38 1012.49 1012.71 1012.63 1012.37 1012.39 1012.89 1013.11 1013.31
1018.70 1019.11 1019.65 1020.03 1020.10 1020.37 1020.92 1021.27 1021.32 1020.59 1019.90 1019.65 1019.91 1019.80 1019.78 1019.71 1019.79 1020.07 1020.38 1020.53 1020.43 1020.41 1019.66 1018.46 1017.22 1016.34 1015.70 1015.00 1014.72 1014.40 1014.10 1013.90 1013.67 1013.14 1012.55 1012.47 1012.47 1012.23 1011.88 1011.79 1011.55 1011.70 1012.09 1012.01 1011.95 1012.12 1012.33 1012.44 1012.41 1012.48 1012.54 1012.68 1012.98 1013.25
1019.10 1019.46 1020.10 1020.31 1020.42 1020.44 1020.51 1020.59 1020.72 1020.50 1019.49 1019.22 1019.08 1019.27 1019.18 1019.28 1019.61 1019.63 1019.49 1019.40 1019.31 1018.42 1017.39 1016.60 1015.69 1014.95 1014.70 1014.44 1014.18 1013.96 1013.71 1013.53 1013.07 1012.86 1012.36 1011.85 1011.75 1011.78 1011.45 1011.31 1011.25 1011.66 1011.64 1011.56 1011.59 1011.68 1011.93 1011.89 1011.97 1012.29 1012.85 1012.99 1013.25 1013.50
1019.04 1019.48 1020.23 1020.76 1020.73 1020.81 1020.47 1019.77 1019.51 1019.48 1019.61 1019.23 1019.47 1019.28 1018.78 1018.61 1018.48 1018.37 1018.29 1018.13 1017.15 1015.97 1015.19 1014.56 1014.26 1014.00 1013.67 1013.48 1013.25 1013.07 1012.75 1012.53 1012.34 1012.09 1011.72 1011.37 1010.87 1010.69 1010.45 1010.55 1011.00 1010.97 1011.02 1011.05 1011.13 1011.18 1011.46 1011.75 1012.07 1012.55 1012.82 1013.06 1013.37 1013.52
1019.47 1019.97 1020.26 1020.38 1020.51 1020.14 1019.46 1019.05 1019.17 1019.14 1018.97 1018.57 1018.52 1018.35 1017.99 1017.93 1017.66 1017.68 1016.96 1015.79 1014.80 1014.15 1013.92 1013.57 1013.22 1013.10 1012.97 1012.75 1012.62 1012.34 1012.07 1011.97 1011.62 1011.26 1011.04 1010.82 1010.52 1010.36 1010.29 1010.31 1010.44 1010.41 1010.39 1010.54 1010.74 1010.88 1011.26 1011.68 1012.17 1012.50 1012.68 1012.98 1013.21 1013.39
1019.36 1019.56 1019.28 1019.27 1019.11 1018.51 1018.81 1018.52 1018.49 1018.29 1018.05 1017.92 1017.60 1017.19 1016.78 1016.65 1016.71 1016.56 1015.03 1013.81 1013.13 1013.03 1012.84 1012.58 1012.51 1012.23 1012.13 1012.01 1011.74 1011.15 1010.94 1011.05 1010.94 1010.73 1010.73 1010.60 1010.17 1009.85 1009.86 1009.72 1009.70 1009.91 1009.96 1009.97 1010.51 1010.86 1011.24 1011.68 1011.98 1012.22 1012.47 1012.68 1012.97 1013.08
1018.87 1018.80 1018.66 1017.76 1017.79 1017.98 1017.94 1017.69 1017.51 1017.40 1016.90 1016.86 1016.72 1016.18 1015.64 1016.01 1015.59 1014.62 1013.22 1012.15 1012.12 1012.00 1011.90 1011.86 1011.81 1011.66 1011.59 1011.35 1011.02 1010.86 1010.66 1010.86 1010.96 1010.63 1010.30 1010.03 1009.72 1009.51 1009.24 1009.18 1009.31 1009.49 1009.87 1010.29 1010.51 1010.76 1011.09 1011.35 1011.66 1011.90 1012.17 1012.37 1012.54 1012.72
1017.27 1016.86 1016.73 1015.92 1015.97 1016.38 1016.09 1015.91 1015.74 1015.67 1015.78 1015.72 1015.30 1015.15 1015.39 1015.01 1014.46 1012.86 1011.39 1011.14 1011.14 1011.15 1011.34 1011.56 1011.43 1011.23 1011.06 1010.91 1010.55 1010.28 1010.46 1010.97 1011.17 1010.72 1010.01 1009.73 1009.30 1009.14 1008.99 1008.91 1009.14 1009.37 1009.68 1009.88 1010.15 1010.42 1010.67 1010.96 1011.27 1011.55 1011.80 1012.07 1012.31 1012.51
1015.64 1014.99 1014.88 1014.69 1014.58 1015.05 1015.00 1015.07 1014.88 1014.73 1014.45 1014.05 1014.01 1014.33 1014.58 1014.04 1012.45 1010.90 1010.42 1010.33 1010.50 1010.48 1010.62 1010.84 1010.89 1010.70 1010.65 1010.55 1010.51 1010.59 1010.85 1011.06 1011.02 1010.68 1010.13 1009.62 1009.20 1008.89 1008.77 1008.74 1008.75 1008.66 1009.11 1009.49 1009.83 1010.07 1010.25 1010.56 1010.90 1011.23 1011.50 1011.76 1012.00 1012.23
1014.22 1013.60 1013.57 1014.07 1014.28 1014.16 1014.17 1014.03 1013.79 1013.49 1012.93 1012.69 1012.95 1012.82 1012.74 1011.78 1010.39 1010.08 1010.19 1010.46 1010.82 1010.84 1010.84 1010.91 1011.04 1011.09 1010.92 1010.80 1010.80 1010.79 1010.79 1010.73 1010.57 1010.43 1010.06 1009.60 1009.24 1009.19 1009.19 1009.02 1009.08 1009.14 1009.08 1009.47 1009.75 1009.93 1010.14 1010.38 1010.68 1010.98 1011.26 1011.51 1011.77 1012.19
1012.91 1012.71 1013.04 1012.90 1013.35 1013.43 1012.99 1012.48 1012.08 1011.42 1011.39 1011.46 1011.45 1011.10 1010.50 1010.28 1010.31 1010.39 1010.47 1011.06 1011.45 1011.49 1011.16 1010.99 1010.94 1010.99 1010.92 1010.83 1010.64 1010.52 1010.59 1010.57 1010.32 1009.90 1009.58 1009.11 1008.76 1008.80 1008.97 1009.08 1009.17 1009.21 1009.30 1009.56 1009.91 1010.02 1010.13 1010.38 1010.62 1010.98 1011.35 1011.68 1011.93 1012.27
1011.80 1012.07 1012.06 1012.01 1012.16 1011.53 1010.77 1011.21 1010.71 1010.68 1010.78 1010.82 1010.72 1010.48 1010.18 1009.89 1009.94 1010.56 1010.92 1011.23 1011.37 1011.27 1011.17 1011.22 1011.25 1011.17 1010.86 1010.64 1010.21 1009.99 1009.99 1010.10 1010.11 1009.91 1009.40 1008.91 1008.67 1008.33 1008.49 1008.73 1008.98 1009.14 1009.28 1009.47 1009.85 1010.41 1010.78 1010.92 1011.33 1011.55 1011.74 1011.95 1012.11 1012.27
1010.93 1011.03 1011.04 1011.01 1010.68 1010.10 1010.19 1010.42 1010.73 1010.84 1010.62 1010.52 1010.31 1010.30 1009.79 1009.82 1010.07 1010.71 1011.09 1011.38 1011.50 1011.54 1011.49 1011.18 1010.94 1010.78 1010.63 1010.48 1010.24 1010.01 1009.85 1009.93 1010.00 1009.87 1009.66 1009.25 1008.89 1008.67 1008.67 1008.87 1009.13 1009.37 1009.59 1009.78 1010.13 1010.49 1010.79 1011.02 1011.20 1011.44 1011.68 1011.88 1012.04 1012.40
1010.92 1010.57 1010.38 1010.08 1009.79 1009.88 1010.41 1010.45 1010.18 1009.99 1009.72 1009.68 1009.50 1009.55 1009.76 1010.19 1010.17 1010.72 1011.82 1011.86 1011.56 1011.45 1011.47 1011.53 1011.28 1011.04 1010.98 1010.87 1010.78 1010.65 1010.63 1010.50 1010.37 1010.11 1009.73 1009.39 1009.22 1009.28 1009.36 1009.49 1009.65 1009.77 1009.93 1010.18 1010.47 1010.69 1010.93 1011.09 1011.28 1011.55 1011.72 1012.01 1012.27 1012.55
1010.01 1009.89 1009.69 1009.62 1009.36 1009.36 1009.50 1009.83 1009.29 1008.99 1008.87 1008.71 1008.68 1008.78 1009.26 1009.75 1009.94 1011.42 1012.29 1012.53 1012.43 1012.36 1012.32 1012.17 1011.97 1011.58 1011.50 1011.42 1011.29 1011.19 1011.25 1011.45 1011.51 1011.24 1010.94 1010.66 1010.37 1010.16 1010.12 1010.19 1010.28 1010.36 1010.47 1010.68 1010.90 1011.09 1011.28 1011.43 1011.55 1011.74 1012.03 1012.33 1012.71 1013.09
Thickness
5497 5501 5504 5508 5511 5514 5518 5519 5521 5524 5527 5529 5533 5534 5536 5537 5537 5538 5547 5544 5547 5542 5554 5559 5559 5560 5560 5554 5542 5545 5535 5535 5524 5520 5510 5515 5514 5529 5534 5543 5534 5526 5511 5511 5509 5516 5530 5565 5553 5522 5528 5538 5532 5527
5490 5495 5499 5504 5505 5507 5510 5513 5516 5518 5517 5520 5523 5526 5525 5526 5525 5525 5531 5534 5532 5529 5544 5548 5553 5563 5555 5554 5551 5541 5534 5538 5530 5519 5510 5507 5503 5498 5502 5514 5532 5520 5530 5537 5535 5545 5564 5562 5547 5543 5539 5534 5522 5508
5474 5482 5488 5492 5496 5501 5506 5507 5509 5511 5512 5514 5515 5516 5518 5516 5515 5514 5520 5522 5518 5508 5521 5526 5544 5553 5548 5546 5540 5528 5524 5531 5527 5528 5514 5499 5493 5506 5500 5510 5503 5509 5518 5519 5527 5540 5541 5536 5531 5530 5522 5507 5513 5504
5461 5470 5480 5486 5491 5496 5498 5503 5505 5506 5508 5510 5510 5510 5510 5510 5509 5505 5507 5512 5511 5501 5495 5519 5533 5539 5540 5538 5533 5528 5526 5522 5518 5515 5487 5479 5485 5495 5501 5507 5505 5505 5503 5509 5522 5526 5520 5519 5516 5516 5508 5502 5501 5494
5448 5454 5466 5476 5483 5490 5494 5498 5500 5503 5506 5505 5506 5506 5505 5505 5504 5498 5499 5503 5505 5503 5497 5501 5515 5528 5531 5531 5525 5521 5516 5515 5509 5490 5479 5492 5493 5484 5494 5499 5502 5505 5509 5495 5497 5505 5503 5518 5515 5506 5497 5489 5484 5477
5438 5444 5453 5462 5468 5477 5484 5489 5494 5497 5499 5499 5500 5499 5500 5499 5495 5489 5486 5494 5494 5496 5485 5494 5503 5512 5519 5516 5519 5515 5512 5510 5502 5495 5483 5490 5497 5474 5479 5502 5513 5513 5504 5497 5496 5500 5500 5505 5506 5496 5483 5477 5472 5463
5426 5434 5439 5446 5453 5461 5469 5476 5483 5487 5491 5492 5493 5492 5492 5489 5486 5483 5483 5487 5488 5484 5469 5478 5482 5490 5492 5496 5506 5507 5505 5500 5491 5486 5485 5484 5481 5468 5468 5490 5534 5499 5496 5499 5500 5498 5499 5496 5488 5483 5472 5467 5461 5452
5413 5422 5428 5433 5439 5444 5450 5458 5464 5469 5474 5477 5478 5480 5479 5476 5471 5469 5468 5473 5474 5466 5462 5465 5470 5472 5479 5472 5473 5482 5479 5469 5471 5476 5473 5471 5484 5459 5471 5507 5504 5505 5499 5501 5499 5491 5481 5479 5473 5465 5459 5450 5446 5435
5403 5410 5417 5420 5425 5430 5436 5440 5447 5453 5458 5461 5464 5463 5460 5457 5455 5455 5456 5457 5455 5451 5445 5443 5465 5465 5467 5465 5453 5453 5451 5449 5455 5459 5468 5468 5482 5476 5494 5492 5492 5493 5488 5478 5473 5465 5460 5454 5452 5450 5443 5436 5418 5403
5393 5400 5408 5410 5414 5418 5422 5427 5431 5436 5441 5445 5448 5446 5439 5441 5441 5441 5442 5440 5434 5432 5427 5437 5445 5450 5464 5444 5437 5434 5431 5429 5434 5460 5462 5456 5476 5484 5481 5480 5481 5472 5464 5455 5448 5445 5437 5431 5426 5423 5413 5398 5380 5362
5387 5390 5396 5401 5403 5406 5410 5414 5416 5419 5425 5432 5429 5429 5425 5426 5430 5428 5428 5426 5426 5425 5420 5430 5442 5443 5436 5432 5426 5418 5422 5424 5430 5464 5453 5452 5465 5470 5467 5462 5455 5445 5439 5435 5429 5424 5417 5410 5406 5397 5386 5371 5355 5344
5376 5380 5383 5387 5390 5393 5394 5398 5402 5406 5412 5413 5415 5412 5412 5414 5415 5412 5416 5415 5415 5428 5436 5430 5427 5427 5421 5418 5418 5413 5413 5410 5421 5425 5413 5434 5454 5446 5444 5438 5430 5425 5422 5418 5410 5404 5398 5392 5384 5374 5361 5348 5340 5330
5360 5365 5368 5370 5374 5378 5380 5383 5387 5389 5392 5396 5395 5397 5402 5398 5399 5403 5413 5413 5418 5408 5397 5395 5400 5398 5393 5387 5388 5392 5402 5414 5395 5400 5417 5436 5432 5430 5422 5419 5415 5408 5397 5384 5387 5381 5375 5369 5362 5347 5338 5330 5320 5318
5345 5350 5353 5355 5359 5362 5365 5367 5371 5375 5381 5375 5377 5376 5382 5387 5400 5413 5406 5392 5377 5373 5377 5381 5382 5386 5379 5380 5381 5379 5401 5392 5397 5408 5428 5439 5417 5409 5401 5395 5389 5389 5370 5363 5364 5361 5352 5342 5338 5330 5320 5315 5311 5308
5331 5334 5337 5339 5343 5347 5347 5348 5350 5356 5355 5354 5354 5368 5375 5387 5380 5370 5365 5368 5360 5357 5361 5366 5363 5363 5363 5359 5362 5368 5370 5379 5399 5412 5423 5413 5389 5382 5379 5374 5371 5357 5350 5348 5352 5346 5337 5329 5325 5319 5313 5307 5304 5299
5320 5320 5325 5327 5329 5330 5330 5332 5337 5339 5334 5339 5344 5356 5362 5355 5356 5344 5342 5346 5349 5345 5342 5343 5343 5341 5347 5357 5359 5363 5376 5393 5405 5397 5391 5388 5376 5371 5365 5357 5351 5345 5343 5342 5342 5337 5330 5319 5315 5312 5308 5301 5296 5292
5313 5320 5317 5317 5317 5318 5320 5324 5325 5318 5325 5329 5342 5344 5347 5337 5339 5336 5333 5336 5338 5329 5333 5333 5327 5338 5357 5352 5357 5374 5374 5377 5375 5371 5367 5362 5359 5355 5352 5344 5336 5334 5337 5335 5333 5329 5323 5314 5308 5303 5300 5300 5292 5285
5310 5310 5309 5308 5309 5308 5310 5312 5307 5310 5316 5330 5329 5333 5324 5324 5324 5320 5315 5321 5315 5320 5325 5321 5331 5333 5337 5348 5359 5363 5361 5357 5350 5347 5349 5349 5346 5343 5338 5332 5331 5329 5328 5325 5317 5315 5310 5304 5301 5302 5299 5296 5285 5279
5305 5303 5301 5300 5301 5301 5299 5295 5302 5309 5316 5320 5317 5314 5315 5316 5315 5313 5312 5306 5307 5309 5306 5309 5307 5328 5339 5342 5336 5336 5333 5331 5332 5335 5338 5336 5330 5327 5328 5327 5325 5323 5322 5313 5309 5308 5305 5299 5299 5302 5299 5289 5287 5283
5294 5294 5292 5291 5292 5292 5287 5289 5292 5299 5306 5312 5309 5307 5308 5310 5308 5299 5292 5290 5291 5286 5292 5300 5315 5324 5326 5332 5329 5327 5326 5323 5319 5315 5323 5324 5320 5319 5322 5321 5323 5317 5308 5306 5304 5300 5297 5294 5294 5291 5288 5284 5279 5274
5283 5282 5280 5280 5281 5284 5285 5285 5283 5287 5300 5302 5304 5301 5301 5299 5292 5290 5290 5288 5282 5291 5301 5309 5312 5319 5318 5318 5319 5314 5310 5307 5306 5300 5300 5303 5308 5304 5308 5311 5309 5301 5300 5301 5300 5297 5293 5293 5291 5286 5276 5272 5268 5263
5277 5275 5270 5267 5270 5270 5275 5285 5288 5288 5285 5289 5284 5285 5289 5290 5290 5287 5287 5283 5292 5307 5309 5311 5313 5313 5312 5310 5309 5305 5302 5298 5294 5291 5289 5289 5294 5297 5300 5300 5295 5296 5296 5296 5296 5294 5291 5287 5281 5273 5268 5264 5259 5256
5268 5265 5264 5263 5265 5268 5277 5280 5276 5279 5276 5283 5284 5281 5284 5281 5285 5283 5284 5301 5307 5309 5307 5307 5308 5306 5301 5301 5297 5295 5292 5285 5285 5286 5285 5284 5286 5287 5287 5288 5287 5290 5291 5292 5291 5289 5284 5277 5270 5265 5263 5258 5254 5250
5262 5261 5266 5266 5267 5274 5268 5272 5275 5277 5277 5275 5278 5278 5286 5285 5281 5276 5290 5304 5310 5306 5303 5302 5300 5299 5297 5293 5290 5293 5290 5284 5282 5282 5279 5276 5279 5283 5283 5284 5286 5286 5288 5289 5283 5279 5274 5267 5263 5260 5257 5253 5248 5245
5260 5260 5260 5268 5270 5266 5265 5269 5270 5271 5274 5272 5272 5278 5284 5274 5275 5282 5297 5310 5303 5302 5301 5298 5293 5290 5285 5285 5286 5284 5282 5278 5274 5276 5278 5278 5278 5278 5281 5283 5283 5282 5278 5275 5273 5270 5266 5263 5259 5256 5252 5248 5244 5240
5263 5266 5266 5278 5277 5273 5278 5277 5278 5277 5275 5272 5276 5280 5270 5273 5271 5283 5307 5306 5303 5302 5289 5283 5282 5283 5282 5281 5281 5283 5278 5271 5267 5269 5275 5275 5277 5276 5277 5278 5276 5275 5271 5270 5268 5266 5263 5259 5255 5251 5247 5243 5238 5233
5263 5273 5276 5283 5283 5277 5276 5271 5274 5275 5274 5278 5282 5276 5268 5264 5280 5304 5310 5309 5303 5300 5293 5287 5284 5283 5280 5277 5274 5270 5265 5261 5261 5263 5267 5271 5274 5276 5275 5275 5274 5276 5269 5266 5264 5261 5259 5255 5251 5247 5242 5238 5233 5228
5271 5280 5276 5272 5266 5273 5268 5271 5273 5273 5281 5288 5284 5278 5269 5283 5300 5305 5301 5297 5288 5285 5282 5278 5273 5270 5268 5267 5264 5261 5259 5258 5259 5260 5262 5265 5267 5266 5265 5266 5264 5263 5264 5260 5257 5255 5253 5250 5245 5241 5237 5233 5228 5220
5271 5278 5273 5272 5268 5265 5270 5277 5283 5292 5292 5287 5283 5287 5291 5295 5294 5292 5291 5280 5272 5270 5271 5270 5268 5264 5261 5259 5258 5258 5255 5254 5257 5261 5264 5268 5270 5266 5261 5259 5257 5256 5255 5252 5248 5247 5245 5241 5238 5233 5228 5223 5217 5211
5274 5272 5270 5272 5265 5274 5288 5281 5287 5284 5285 5280 5281 5284 5287 5289 5285 5276 5272 5269 5266 5265 5265 5262 5258 5255 5255 5254 5257 5258 5255 5253 5252 5254 5259 5264 5263 5263 5259 5256 5253 5251 5249 5246 5242 5236 5230 5228 5222 5218 5215 5210 5206 5202
5273 5270 5270 5273 5276 5284 5283 5280 5271 5269 5269 5271 5273 5272 5279 5279 5274 5264 5261 5258 5255 5253 5252 5254 5255 5253 5252 5251 5252 5252 5253 5249 5246 5246 5247 5249 5250 5252 5251 5248 5245 5242 5239 5236 5232 5227 5223 5219 5216 5211 5206 5201 5197 5190
5258 5263 5266 5268 5274 5273 5261 5265 5269 5270 5273 5272 5274 5273 5270 5264 5269 5264 5247 5245 5249 5249 5246 5241 5243 5243 5241 5240 5239 5238 5236 5237 5237 5238 5240 5242 5242 5240 5238 5235 5233 5230 5227 5224 5220 5217 5213 5209 5205 5199 5195 5189 5184 5179
5256 5259 5262 5262 5266 5268 5268 5261 5268 5269 5270 5271 5273 5275 5270 5268 5272 5245 5235 5231 5231 5230 5228 5228 5228 5231 5229 5228 5228 5227 5225 5222 5220 5221 5222 5223 5224 5225 5224 5222 5219 5217 5214 5211 5207 5203 5199 5194 5191 5186 5181 5176 5170 5164